Miscellaneous Local Product
Issued by NWS North Platte, NE

Home | Current Version | Previous Version | Graphics & Text | Print | Product List | Glossary On
Versions: 1 2 3 4 5 6 7 8 9 10 11 12 13 14 15 16 17 18 19 20 21 22 23 24 25 26 27 28 29 30 31 32 33 34 35 36 37 38 39 40 41 42 43 44 45 46 47 48 49 50
000
AXUS43 KLBF 212110
MISLBF


WESTERN AND NORTH CENTRAL NEBRASKA HOURLY WEATHER ROUNDUP
NATIONAL WEATHER SERVICE NORTH PLATTE NE
300 PM CST SUN DEC 21 2014

***STATIONS NOT REPORTING VARIABLES SUCH AS SKY/WEATHER OR
PRESSURE ARE PROVIDED BY THE NEBRASKA DEPARTMENT OF
ROADS...RAWS...AND APRS NETWORKS...AND ARE NOT UNDER
NATIONAL WEATHER SERVICE QUALITY CONTROL***

...OBSERVATIONS IN AND NEAR THE EASTERN PANHANDLE OF NEBRASKA...

CITY           SKY/WX    TMP DP  RH WIND       PRES   REMARKS
PINE RIDGE     CLOUDY    48  31  51 S14       29.38F
CHADRON        CLOUDY    45  31  58 W9        29.39F
ALLIANCE       CLOUDY    41  29  62 SW15      29.43F
SIDNEY         CLOUDY    40  27  59 SW9       29.52F WCI  34
WHITECLAY        N/A     46  29  51 S9          N/A
CRESCENT LAKE    N/A     43  27  52 S9G16       N/A
LISCO            N/A     48  26  42 SW10        N/A
BIG SPRINGS      N/A     35  30  83 W3          N/A
$$

...OBSERVATIONS IN NORTH CENTRAL NEBRASKA...

CITY           SKY/WX    TMP DP  RH WIND       PRES   REMARKS
VALENTINE      CLOUDY    42  31  64 S9        29.43F
THEDFORD       CLOUDY    41  31  67 SW10G17   29.50F
AINSWORTH      PTSUNNY   38  31  74 S13       29.47F WCI  31
O`NEILL        MOSUNNY   37  35  94 S12       29.54F FOG     WCI  29
BROKEN BOW     CLOUDY    38  33  82 S18G25    29.56S WCI  28
BROWNLEE         N/A     42  28  57 S18         N/A
SPRINGVIEW       N/A     43  33  67 S6G14       N/A
BREWSTER         N/A     41  33  72 S8          N/A
ROSE             N/A     40  37  87 E9          N/A  WCI  34
SARGENT          N/A     35  33  91 S3G12       N/A
COMSTOCK         N/A     38  37  98 S12         N/A  WCI  30
CHAMBERS         N/A     39  33  80 S10G18      N/A  WCI  32
EWING            N/A     36  35  96 CALM        N/A
$$

...OBSERVATIONS IN SOUTHWEST NEBRASKA AND FAR NORTHEAST COLORADO...

CITY           SKY/WX    TMP DP  RH WIND       PRES   REMARKS
WRAY           CLOUDY    45  32  61 S5        29.53F
HOLYOKE        FAIR      41  32  70 SW7       29.52F
IMPERIAL       CLOUDY    46  30  53 S7        29.53F
OGALLALA       CLOUDY    36  30  79 W8        29.52F WCI  29
NORTH PLATTE   CLOUDY    42  31  64 S5        29.54F
MCCOOK         CLOUDY    40  32  73 S13       29.57F WCI  32
LEXINGTON      CLOUDY    39  37  91 S14       29.59S FOG     WCI  31
PAXTON           N/A     40  35  81 W5          N/A
BRADY            N/A     41  34  75 CALM        N/A
GOTHENBURG       N/A     37  32  82 SE6         N/A  WCI  32
CALLAWAY         N/A     36  33  88 S14         N/A  WCI  27
$$

...NORTH PLATTE AREA...

CITY           SKY/WX    TMP DP  RH WIND       PRES   REMARKS
AIRPORT        CLOUDY    42  31  64 S5        29.54F
$$

...SOME WEATHER OBSERVATIONS FROM AROUND THE REGION...

CITY           SKY/WX    TMP DP  RH WIND       PRES   REMARKS
DENVER         PTSUNNY   51  23  33 W10G20    29.54F
LARAMIE        CLOUDY    37  26  64 W31G39    29.54F WCI  24
CHEYENNE       PTSUNNY   44  28  53 W25G40    29.51S
SCOTTSBLUFF    CLOUDY    44  32  62 W16       29.45F
RAPID CITY     CLOUDY    48  27  44 N10       29.38S
PIERRE         SUNNY     34  28  79 E10       29.41F WCI  26
WINNER         FAIR      43  29  57 S18       29.42F
SIOUX FALLS    CLOUDY    37  35  92 S16       29.60F FOG     WCI  28
OMAHA          CLOUDY    42  39  89 S21       29.76F
GRAND ISLAND   CLOUDY    41  38  89 S15       29.64F FOG
KANSAS CITY    CLOUDY    44  39  82 S12       29.84F
WICHITA        DRIZZLE   45  43  93 S13       29.76F FOG
HAYS           CLOUDY    45  34  65 S14G20    29.66F
LIBERAL        SUNNY     54  39  58 S12       29.64F
GOODLAND       CLOUDY    49  33  54 SE7       29.56F
$$



USA.gov is the U.S. government's official web portal to all federal, state and local government web resources and services.